Location: *
(48.8780°N, 19.2358°E)
Time: 12:15:49
(UTC+00:00)

ATLAS CENTAUR R/B - Pass Details

Date: 18 October 2019
Orbit: 456 x 692 km, 64.6° (Epoch: 31 October)

Event Time Altitude Azimuth Distance (km) Brightness Sun altitude
Rises 16:35:47 0° 305° (NW) 3,035 6.0 -8.5°
Reaches altitude 10° 16:39:56 10° 339° (NNW) 2,078 4.5 -9.2°
Maximum altitude 16:41:27 11° 358° (N) 1,965 4.1 -9.4°
Drops below altitude 10° 16:42:58 10° 17° (NNE) 2,037 4.0 -9.7°
Enters shadow 16:45:27 - 41° (NE) 2,489 4.2 -10.1°
